Probability
0 0 0 0 0 0 0 0 0 0 0 0 0 0 0 0 0 0 0 0 0 0 0 0 0 0 0 0 0 0 0 0 0 0 0 0 0 0 0 0 0 0 0
1 0 0 0 0 0 0 0 0 0 0 0 0 0 0 0 0 0 0 0 0 0 0 0 0 0 0 0 0 0 0 0 0 0 0 0 0 0 0 0 0 0 0
2 1 0 0 0 0 0 0 0 0 0 0 0 0 0 0 0 0 0 0 0 0 0 0 0 0 0 0 0 0 0 0 0 0 0 0 0 0 0 0 0 0 0
2 1 0 0 0 0 0 0 0 0 0 0 0 0 0 0 0 0 0 0 0 0 0 0 0 0 0 0 0 0 0 0 0 0 0 0 0 0 0 0 0 0 0
1 0 0 0 0 0 0 0 0 0 0 0 0 0 0 0 0 0 0 0 0 0 0 0 0 0 0 0 0 0 0 0 0 0 0 0 0 0 0 0 0 0 0
0 0 0 0 0 0 0 0 0 0 0 0 0 0 0 0 0 0 0 0 0 0 0 0 0 0 0 0 0 0 0 0 0 0 0 0 0 0 0 0 0 0 0
0 0 0 0 0 0 0 0 0 0 0 0 0 0 0 0 0 0 0 0 0 0 0 0 0 0 0 0 0 0 0 0 0 0 0 0 0 0 0 0 0 0 0
1 0 0 0 0 0 0 0 0 0 0 0 0 0 0 0 0 0 0 0 0 0 0 0 0 0 0 0 0 0 0 0 0 0 0 0 0 0 0 0 0 0 0
2 1 0 0 0 0 0 0 0 0 0 0 0 0 0 0 0 0 0 0 0 0 0 0 0 0 0 0 0 0 0 0 0 0 0 0 0 0 0 0 0 0 0
2 1 0 0 0 0 0 0 0 0 0 0 0 0 0 0 0 0 0 0 0 0 0 0 0 0 0 0 0 0 0 0 0 0 0 0 0 0 0 0 0 0 0
1 0 0 0 0 0 0 0 0 0 0 0 0 0 0 0 0 0 0 0 0 0 0 0 0 0 0 0 0 0 0 0 0 0 0 0 0 0 0 0 0 0 0
0 0 0 0 0 0 0 0 0 0 0 0 0 0 0 0 0 0 0 0 0 0 0 0 0 0 0 0 0 0 0 0 0 0 0 0 0 0 0 0 0 0 0
0 0 0 0 0 0 0 0 0 0 0 0 0 0 0 0 0 0 0 0 0 0 0 0 0 0 0 0 0 0 0 0 0 0 0 0 0 0 0 0 0 0 0
0 0 0 0 0 0 0 0 0 0 0 0 0 0 0 0 0 0 0 0 0 0 0 0 0 0 0 0 0 0 0 0 0 0 0 0 0 0 0 0 0 0 0
0 0 0 0 0 0 0 0 0 0 0 0 0 0 0 0 0 0 0 0 0 0 0 0 0 0 0 0 0 0 0 0 0 0 0 0 0 0 0 0 0 0 0
0 0 0 0 0 0 0 0 0 0 0 0 0 0 0 0 0 0 0 0 0 0 0 0 0 0 0 0 0 0 0 0 0 0 0 0 0 0 0 0 0 0 0
0 0 0 0 0 0 0 0 0 0 0 0 0 0 0 0 0 0 0 0 0 0 0 0 0 0 0 0 0 0 0 0 0 0 0 0 0 0 0 0 0 0 0
0 0 0 0 0 0 0 0 0 0 0 0 0 0 0 0 0 0 0 0 0 0 0 0 0 0 0 0 0 0 0 0 0 0 0 0 0 0 0 0 0 0 0
0 0 0 0 0 0 0 0 0 0 0 0 0 0 0 0 0 0 0 0 0 0 0 0 0 0 0 0 0 0 0 0 0 0 0 0 0 0 0 0 0 0 0
0 0 0 0 0 0 0 0 0 0 0 0 0 0 0 0 0 0 0 0 0 0 0 0 0 0 0 0 0 0 0 0 0 0 0 0 0 0 0 0 0 0 0
1 0 0 0 0 0 0 0 0 0 0 0 0 0 0 0 0 0 0 0 0 0 0 0 0 0 0 0 0 0 0 0 0 0 0 0 0 0 0 0 0 0 0
1 1 1 0 0 0 0 0 0 0 0 0 0 0 0 0 0 0 0 0 0 0 0 0 0 0 0 0 0 0 0 0 0 0 0 0 0 0 0 0 0 0 0
1 2 2 1 0 0 0 0 0 0 0 0 0 0 0 0 0 0 0 0 0 0 0 0 0 0 0 0 0 0 0 0 0 0 0 0 0 0 0 0 0 0 0
0 1 2 2 1 1 0 0 0 0 0 0 0 0 0 0 0 0 0 0 0 0 0 0 0 0 0 0 0 0 0 0 0 0 0 0 0 0 0 0 0 0 0
0 0 1 1 1 1 1 1 1 0 0 0 0 0 0 0 0 0 0 0 0 0 0 0 0 0 0 0 0 0 0 0 0 0 0 0 0 0 0 0 0 0 0
0 0 0 0 1 1 2 2 2 1 0 0 0 0 0 0 0 0 0 0 0 0 0 0 0 0 0 0 0 0 0 0 0 0 0 0 0 0 0 0 0 0 0
Wind_Speed
3 3 4 6 7 8 9 9 9 9 9 10 9 10 10 10 10 10 9 9 10 10 11 11 11 12 12 12 13 13 13 12 12 11 12 12 11 12 11 11 10 7 11
3 3 5 7 8 8 9 9 9 9 9 9 9 10 10 10 10 10 10 9 9 9 10 10 11 11 11 11 11 11 10 9 8 8 8 9 10 11 11 11 10 7 10
5 4 4 8 9 9 9 9 9 9 9 9 9 9 9 10 10 10 10 10 10 9 9 9 9 10 10 10 10 9 8 6 4 3 3 3 6 9 10 10 9 9 9
5 4 4 8 9 9 9 8 9 9 9 9 9 9 9 9 10 10 10 9 10 9 9 8 8 8 8 8 8 7 6 4 4 5 1 3 4 8 8 8 8 8 7
5 5 6 8 9 9 9 9 8 8 8 8 9 9 9 10 10 10 10 9 9 9 8 8 8 7 7 6 6 5 4 4 6 5 2 4 4 6 7 7 6 6 6
6 6 6 9 9 9 9 9 9 9 8 8 9 8 9 9 9 9 9 9 9 9 9 8 8 7 6 5 4 4 3 4 6 2 2 3 4 5 5 5 4 4 5
6 6 5 9 9 9 9 9 9 9 9 9 9 9 9 9 8 8 9 9 8 8 8 8 7 7 6 5 3 3 3 5 4 2 2 3 4 4 4 3 3 3 3
6 6 5 8 9 9 9 9 9 9 8 9 9 8 8 8 8 7 8 8 8 8 7 7 6 6 6 5 5 4 4 5 5 2 1 3 4 3 2 2 2 1 1
6 5 4 4 5 7 8 8 8 8 9 9 9 8 8 7 7 7 7 7 7 7 7 7 6 5 5 5 5 4 4 5 4 2 1 2 2 1 2 2 2 2 1
6 5 4 4 4 4 4 7 8 9 9 9 9 9 8 7 6 7 6 6 6 6 6 6 5 5 5 4 4 4 5 5 4 3 1 2 2 1 2 2 2 2 2
5 4 4 4 3 3 3 5 6 7 8 8 6 8 6 3 3 3 5 6 6 5 5 5 5 5 4 3 4 4 4 3 3 2 1 2 1 2 3 2 2 3 3
4 4 3 3 3 3 3 3 2 3 3 3 3 3 2 2 3 4 5 6 6 6 5 4 4 4 3 2 3 3 2 3 3 2 0 2 1 2 3 3 3 3 4
3 3 3 3 3 3 2 2 2 2 2 2 3 3 3 3 3 3 2 3 3 3 3 3 3 2 3 2 2 2 2 3 2 2 1 0 0 2 4 4 5 5 5
3 3 3 3 3 2 2 2 2 2 2 2 2 3 3 2 2 2 2 2 2 2 3 3 3 3 3 3 3 3 3 2 2 2 1 1 1 3 4 4 4 5 5
3 3 2 2 2 2 2 2 2 2 2 2 2 2 3 2 2 2 2 2 2 2 2 3 3 4 4 3 3 3 3 3 3 2 1 2 2 3 4 5 5 5 5
3 2 2 2 2 2 2 2 2 2 2 2 2 2 3 2 2 2 2 2 3 3 3 2 3 3 3 3 4 4 4 3 3 3 2 2 3 4 5 6 6 6 6
2 2 2 2 2 2 2 2 2 2 2 2 2 2 3 2 2 2 2 2 2 2 3 3 3 3 3 3 4 4 3 3 3 3 3 2 2 3 4 6 6 6 6
2 2 2 3 2 2 2 1 1 2 2 2 2 2 3 3 3 1 1 2 2 2 2 2 3 3 3 4 4 4 3 2 3 3 2 2 2 1 2 4 5 6 7
2 2 2 2 2 1 1 1 2 2 2 2 2 2 2 3 3 2 2 2 2 2 2 3 3 3 3 4 4 4 4 3 3 3 2 3 2 2 1 2 3 4 5
2 2 2 2 2 2 1 1 1 1 2 2 2 2 3 3 3 2 2 3 3 2 2 2 3 3 3 4 5 4 4 4 3 2 3 2 2 2 2 2 2 3 5
2 2 2 2 1 1 1 1 0 0 1 1 1 2 3 3 3 2 2 2 2 2 2 3 3 3 3 3 3 4 4 4 2 2 2 2 2 3 2 2 2 2 2
2 1 1 1 1 1 1 0 1 1 0 0 1 1 1 2 2 2 3 2 2 2 3 3 3 3 2 2 2 3 4 4 2 3 2 2 2 2 2 3 3 2 2
2 1 1 1 1 0 1 1 1 1 1 1 2 1 2 2 2 2 2 2 2 2 2 2 2 3 3 2 2 1 2 3 5 3 2 2 2 2 3 3 3 3 3
1 1 1 1 0 1 1 0 1 0 0 1 1 1 2 2 2 2 3 3 3 2 2 3 2 3 2 3 2 2 3 3 3 4 3 2 3 3 4 4 4 4 4
1 1 1 1 1 0 1 0 0 1 1 1 1 1 1 1 2 2 2 2 3 2 3 3 3 3 2 3 2 2 3 4 3 4 6 5 4 3 4 4 3 3 3
1 1 1 1 1 1 1 0 0 1 2 2 2 2 2 2 2 3 3 3 3 3 3 3 3 3 3 3 3 3 2 2 3 4 6 7 6 5 5 4 4 4 3
Wind_Direction
41 33 13 32 60 73 76 76 75 74 74 75 77 74 73 71 69 68 70 75 79 78 75 73 73 74 74 73 72 71 70 70 71 72 71 70 71 67 59 55 60 57 62
70 66 28 40 62 74 75 74 74 73 73 74 75 75 74 72 71 69 68 72 75 76 76 74 72 74 75 75 74 73 71 71 70 70 73 72 72 69 62 56 59 61 62
75 76 54 49 57 66 69 72 74 73 71 72 73 75 74 72 70 68 66 66 68 69 72 74 75 76 78 78 76 72 68 63 50 29 29 90 78 72 68 61 59 60 58
78 79 69 55 57 65 67 67 71 70 69 69 70 72 73 72 69 67 65 64 63 63 65 68 72 75 78 80 77 72 61 32 355 335 10 79 76 75 69 62 57 53 52
76 72 66 56 58 61 63 62 64 65 66 68 69 69 71 72 68 65 64 63 60 59 61 63 65 67 70 75 75 68 45 356 335 317 47 78 78 77 72 64 56 47 44
77 73 70 54 56 58 58 59 60 62 64 66 66 67 68 70 70 66 63 61 59 56 56 58 57 59 59 63 67 54 10 338 323 321 50 74 79 75 70 63 58 47 41
75 75 78 55 55 54 55 59 61 61 61 61 63 63 64 65 68 69 64 60 56 53 51 50 50 50 47 41 43 27 355 334 314 360 46 70 81 72 60 49 44 46 43
81 82 83 54 53 50 48 50 57 57 58 60 59 60 60 63 64 64 64 60 54 49 46 45 43 40 37 30 23 11 341 319 322 337 61 88 93 74 32 15 16 17 30
81 83 82 70 61 51 45 45 50 52 53 54 52 50 50 50 51 52 52 53 52 46 43 40 36 31 28 25 19 3 334 314 305 296 352 90 103 72 345 334 328 340 337
72 75 73 70 63 58 56 49 50 51 51 50 47 43 43 43 42 43 40 39 44 39 36 31 26 21 12 9 360 342 323 314 294 294 356 99 99 305 296 295 293 303 301
61 64 70 65 59 54 64 58 52 52 48 50 49 45 43 36 43 41 31 30 29 27 23 17 15 11 358 336 318 313 313 298 300 326 26 70 55 299 290 283 280 285 282
57 49 55 63 60 57 62 68 53 56 54 46 45 40 18 15 27 39 39 34 22 14 4 353 346 342 324 305 292 289 295 295 308 318 46 94 62 311 296 290 275 277 277
84 59 48 47 60 56 50 65 51 51 46 38 38 26 17 23 29 36 40 31 16 7 350 335 313 310 310 317 318 304 301 315 318 322 14 112 248 276 285 290 281 275 276
72 66 55 46 47 53 54 56 57 50 49 43 33 33 28 22 21 18 26 16 8 352 342 338 329 320 325 332 327 323 319 316 311 322 321 293 268 267 275 282 288 286 279
70 64 63 52 48 43 50 44 54 52 53 49 39 31 32 29 16 13 10 11 359 357 349 336 332 335 333 325 317 311 309 306 307 308 316 298 275 279 280 282 282 288 291
74 65 54 63 53 48 43 37 49 52 49 52 45 29 26 25 21 16 10 4 355 354 349 334 331 333 328 326 325 318 305 301 301 306 304 282 266 265 272 280 281 280 282
87 82 55 56 50 51 48 35 35 43 49 44 37 23 17 13 15 16 8 2 348 343 343 337 335 336 335 336 322 315 307 304 304 295 299 303 280 266 267 277 281 282 286
82 84 71 47 48 47 45 37 39 38 44 42 34 25 13 7 3 5 4 351 337 340 349 343 346 343 338 335 324 316 308 295 299 289 293 302 296 292 270 281 288 288 287
99 85 75 57 48 47 54 45 48 46 43 42 33 25 12 14 6 2 355 342 342 349 351 348 349 339 333 329 319 313 307 301 292 292 289 296 304 315 312 302 302 302 301
128 108 85 63 41 30 50 65 53 40 41 41 35 20 10 15 15 4 356 349 351 349 345 347 339 336 329 323 315 310 295 284 287 290 294 297 318 320 327 328 299 293 292
125 114 100 82 54 39 34 36 50 3 9 17 23 26 12 9 3 3 357 348 355 351 346 342 336 332 331 332 319 311 289 265 271 285 291 298 313 310 306 313 302 294 294
123 122 124 114 90 50 26 245 216 252 233 45 352 354 352 356 357 358 351 343 346 342 350 355 351 339 327 342 324 316 314 311 314 280 282 281 285 303 301 306 299 292 290
100 103 101 134 137 113 23 18 8 13 7 9 347 341 344 347 348 342 346 342 339 339 330 326 335 337 317 308 314 298 304 297 316 288 281 280 297 290 287 287 286 288 289
112 121 122 121 158 177 141 47 29 29 327 301 313 330 345 0 1 357 356 343 329 321 319 315 319 300 297 296 296 282 273 287 296 305 299 296 304 292 289 290 283 274 279
115 118 114 88 58 55 118 139 285 293 289 309 326 322 315 317 336 348 348 346 338 329 327 322 316 311 301 297 297 298 287 288 276 281 293 307 301 283 282 283 282 277 272
110 105 109 115 84 56 52 32 318 309 325 339 344 341 334 330 335 350 348 346 334 330 327 323 317 314 305 305 303 303 303 294 295 283 283 296 296 291 282 268 271 275 275